FREGAT DEB, 40078

Orbit data source: Space-Track

FREGAT DEB, 40078 is space debris in SSO originally from a launch on Tue, 08 Jul 2014 UTC launched from the Tyuratam Missile And Space Complex (TTMTR). Debris objects in space refer to the collection of defunct objects orbiting the Earth. Examples of debris include non-operational satellites, rocket bodies, and fragments generated from explosions, collisions, or faulty payload assembly.

Loading next visibility...
Identifier
40078, 2014-037K
Orbit
SSO
Country
Flag of CISCIS
Related business
Manufacturer
Lavochkin
Mission
Spacecraft
Bus & Motor
Unknown
Mass
Unknown
Launch date (UTC)
2014-07-08 (12 years ago)
Launch vehicle
Unknown
Launch site
Tyuratam Missile And Space Complex (TTMTR)
Object type
Payload
Rocket body
Debris
Shape & HBR
Irr + 1 Truss, 1.5 m
Radar Cross Section
7.500 m², Large (>1 m²)

Expand to show TLE details & history
Last TLE update: 13 hours ago

TLE from 13 hours ago
0 FREGAT DEB
1 40078U 14037K   26103.64655902  .00000284  00000-0  68969-4 0  9999
2 40078  98.0642  83.7094 0129083 267.2405  91.4013 14.55599759623738
Epoch: 2026-04-13T15:31Z
TLE epoch observation values (Epoch: 2026-04-13T15:31:02.699Z)
Latitude
-0.00002°
Longitude
9.11399°
Altitude
713.818 km
Speed
7.497 km/s
True Right ascension
05h 34m 50s
True Declination
0° 00' 00"
Sunlit
Object was in daylight at epoch
Visualization orbit readout
Latitude
Unknown
Longitude
Unknown
Altitude
Unknown
Speed
Unknown
Apparent Right ascension
Unknown
Apparent Declination
Unknown
Sunlit
N/A
Visualization observer readout
Local Sidereal Time
11:00:32
Azimuth
Unknown
Elevation
Unknown
Doppler factor
Unknown
Orbital elements
Apogee altitude
795.923 km
Perigee altitude
613.073 km
Semi-major axis
7,082.635 km
Eccentricity
0.01291
Inclination
98.0642°
RAAN
83.7094°
Arg. of periapsis
267.2405°
True anomaly
92.87929°
Mean anomaly
91.4013°
Eccentric anomaly
92.14038°
Mean motion
3.64125 °/min
Orbital period
98.87 mins
BSTAR
0.000068969
Loading maneuver chart data...
Computing Atmospheric mass density...
Loading historical data...
Loading historical data...
Loading historical data...
Loading historical data...
Loading historical data...
Loading historical data...
Loading historical data...

Documentation

Showing up to 5 results
|